Latest Weather Observations for Braidwood

IDN60901

Issued at 7:55 am EDT Friday 28 November 2014 (issued every 10 minutes, with the page automatically refreshed every 10 minutes)

About weather observations | Map of Canberra area stations | Latest observations for Canberra area | Other Formats
Station Details ID: 069132 Name: BRAIDWOOD RACECOURSE AWS Lat: -35.43 Lon: 149.78 Height: 665.2 m
Data from the previous 72 hours. | See also: Recent months at Braidwood
Date/Time
EDT
Tmp

°C
App
Tmp
°C
Dew
Point
°C
Rel
Hum
%
Delta-T

°C
Wind Press
QNH
hPa
Press
MSL
hPa
Rain
since
9 am
mm
Dir
 
Spd
km/h
Gust
km/h
Spd
kts
Gust
kts
28/07:30am 11.1 11.3 10.5 96 0.3 CALM 0 0 0 0 1024.5 1023.0 0.0
28/07:00am 8.2 7.6 7.6 96 0.3 CALM 0 0 0 0 1024.2 1022.7 0.0
28/06:30am 6.3 5.3 5.7 96 0.3 CALM 0 0 0 0 1023.9 1022.3 0.0
28/06:00am 5.5 4.3 4.8 95 0.3 CALM 0 0 0 0 1023.6 1022.1 0.0
28/05:30am 5.3 4.1 4.4 94 0.4 CALM 0 0 0 0 1023.5 1022.0 0.0
28/05:00am 6.4 5.4 5.7 95 0.3 CALM 0 0 0 0 1023.3 1021.8 0.0
28/04:30am 6.7 5.7 5.8 94 0.4 CALM 0 0 0 0 1023.2 1021.7 0.0
28/04:00am 7.4 6.6 6.3 93 0.5 CALM 0 0 0 0 1023.3 1021.8 0.0
28/03:30am 8.7 8.1 7.3 91 0.7 CALM 0 0 0 0 1023.6 1022.1 0.0
28/03:00am 10.3 10.1 9.1 92 0.6 CALM 0 0 0 0 1023.8 1022.2 0.0
28/02:30am 10.7 10.6 9.6 93 0.6 CALM 0 0 0 0 1024.1 1022.6 0.0
28/02:00am 10.8 10.0 9.7 93 0.6 SE 4 6 2 3 1024.2 1022.7 0.0
28/01:30am 10.9 10.9 9.8 93 0.6 CALM 0 0 0 0 1024.5 1023.0 0.0
28/01:00am 10.9 10.9 9.8 93 0.6 CALM 0 0 0 0 1024.8 1023.3 0.0
28/12:30am 10.8 10.0 9.7 93 0.6 SE 4 6 2 3 1024.9 1023.4 0.0
28/12:00am 10.8 9.4 9.7 93 0.6 SE 7 9 4 5 1025.0 1023.5 0.0
 
Date/Time
EDT
Tmp

°C
App
Tmp
°C
Dew
Point
°C
Rel
Hum
%
Delta-T

°C
Wind Press
QNH
hPa
Press
MSL
hPa
Rain
since
9 am
mm
Dir
 
Spd
km/h
Gust
km/h
Spd
kts
Gust
kts
27/11:30pm 11.0 10.3 9.9 93 0.6 ESE 4 4 2 2 1025.5 1024.0 0.0
27/11:00pm 11.0 10.2 9.8 92 0.6 E 4 7 2 4 1025.7 1024.2 0.0
27/10:30pm 11.0 9.9 9.9 93 0.6 ESE 6 9 3 5 1025.9 1024.4 0.0
27/10:00pm 10.9 9.2 9.7 92 0.6 E 9 15 5 8 1025.8 1024.3 0.0
27/09:30pm 11.0 9.7 10.1 94 0.5 SE 7 9 4 5 1025.6 1024.1 0.0
27/09:00pm 11.0 9.7 10.1 94 0.5 SE 7 13 4 7 1025.4 1023.9 0.0
27/08:30pm 11.0 8.6 9.9 93 0.6 ESE 13 17 7 9 1025.1 1023.6 0.0
27/08:00pm 11.4 9.3 9.8 90 0.8 SE 11 19 6 10 1024.9 1023.4 0.0
27/07:30pm 11.4 8.1 9.7 89 0.9 ESE 17 20 9 11 1024.7 1023.2 0.0
27/07:00pm 12.0 8.7 9.6 85 1.3 ESE 17 22 9 12 1024.4 1022.9 0.0
27/06:30pm 12.3 8.6 9.5 83 1.5 ESE 19 22 10 12 1024.2 1022.7 0.0
27/06:00pm 12.3 8.7 9.7 84 1.4 ESE 19 26 10 14 1023.8 1022.2 0.0
27/05:30pm 12.8 9.1 10.0 83 1.5 ESE 20 28 11 15 1023.5 1022.0 0.0
27/05:00pm 12.8 9.1 10.0 83 1.5 SE 20 30 11 16 1023.3 1021.8 0.0
27/04:30pm 14.1 10.6 10.3 78 2.1 SE 19 30 10 16 1023.2 1021.7 0.0
27/04:00pm 15.5 11.5 10.3 71 2.8 SE 22 32 12 17 1022.9 1021.4 0.0
27/03:30pm 16.1 12.1 10.6 70 3.0 SE 22 30 12 16 1022.9 1021.4 0.0
27/03:00pm 17.7 14.2 12.2 70 3.1 SE 22 28 12 15 1022.8 1021.3 0.0
27/02:30pm 18.3 15.1 11.1 63 4.0 E 19 28 10 15 1022.6 1021.1 0.0
27/02:00pm 17.4 14.3 10.3 63 3.9 E 17 26 9 14 1022.8 1021.3 0.0
27/01:30pm 16.8 14.5 10.6 67 3.4 E 13 20 7 11 1023.0 1021.5 0.0
27/01:00pm 16.9 14.6 10.5 66 3.5 SE 13 19 7 10 1023.0 1021.5 0.0
27/12:30pm 17.8 16.5 11.1 65 3.7 E 9 24 5 13 1023.3 1021.8 0.0
27/12:00pm 16.3 14.3 10.2 67 3.3 E 11 17 6 9 1023.5 1022.0 0.0
27/11:30am 15.3 13.2 9.9 70 2.9 ESE 11 17 6 9 1023.8 1022.2 0.0
27/11:00am 15.4 12.9 11.0 75 2.4 ESE 15 20 8 11 1024.0 1022.5 0.0
27/10:30am 14.5 11.5 10.7 78 2.1 ESE 17 22 9 12 1024.1 1022.6 0.0
27/10:00am 13.8 10.9 11.0 83 1.5 ESE 17 26 9 14 1023.9 1022.3 0.0
27/09:30am 12.4 9.4 10.6 89 1.0 ESE 17 24 9 13 1023.8 1022.2 0.0
27/09:00am 12.6 10.0 10.7 88 1.0 ESE 15 20 8 11 1023.8 1022.2 0.0
27/08:30am 12.7 10.5 10.9 89 1.0 ESE 13 17 7 9 1023.5 1022.0 0.0
27/08:00am 13.5 12.7 11.6 88 1.0 E 7 13 4 7 1023.4 1021.9 0.0
27/07:30am 12.9 13.2 11.0 88 1.0 CALM 0 0 0 0 1023.1 1021.6 0.0
27/07:00am 12.6 13.0 11.2 91 0.8 CALM 0 0 0 0 1023.0 1021.5 0.0
27/06:30am 12.4 12.8 11.1 92 0.7 CALM 0 0 0 0 1022.7 1021.2 0.0
27/06:00am 12.2 12.5 10.9 92 0.7 CALM 0 0 0 0 1022.4 1020.8 0.0
27/05:30am 12.2 11.7 10.9 92 0.7 ESE 4 7 2 4 1022.2 1020.6 0.0
27/05:00am 12.0 11.6 11.1 94 0.5 E 4 6 2 3 1021.7 1020.2 0.0
27/04:30am 12.0 11.2 11.1 94 0.5 SE 6 9 3 5 1021.6 1020.1 0.0
27/04:00am 11.9 11.1 11.0 94 0.5 ESE 6 7 3 4 1021.5 1020.0 0.0
27/03:30am 12.1 11.0 10.8 92 0.7 SE 7 11 4 6 1021.4 1019.9 0.0
27/03:00am 12.2 11.2 10.9 92 0.7 ESE 7 9 4 5 1021.3 1019.8 0.0
27/02:30am 12.1 11.0 10.8 92 0.7 ESE 7 11 4 6 1021.4 1019.9 0.0
27/02:00am 12.0 10.2 10.7 92 0.7 SE 11 15 6 8 1021.4 1019.9 0.0
27/01:30am 12.1 10.7 10.8 92 0.7 SE 9 13 5 7 1021.8 1020.3 0.0
27/01:00am 12.2 10.4 10.8 91 0.8 ESE 11 19 6 10 1021.9 1020.4 0.0
27/12:30am 12.2 9.9 10.6 90 0.9 SE 13 17 7 9 1022.0 1020.5 0.0
27/12:00am 12.6 10.4 10.8 89 1.0 SE 13 19 7 10 1022.4 1020.8 0.0
 
Date/Time
EDT
Tmp

°C
App
Tmp
°C
Dew
Point
°C
Rel
Hum
%
Delta-T

°C
Wind Press
QNH
hPa
Press
MSL
hPa
Rain
since
9 am
mm
Dir
 
Spd
km/h
Gust
km/h
Spd
kts
Gust
kts
26/11:30pm 12.8 10.7 11.2 90 0.9 SE 13 19 7 10 1022.3 1020.7 0.0
26/11:00pm 13.0 10.1 11.1 88 1.0 ESE 17 24 9 13 1022.4 1020.8 0.0
26/10:30pm 13.3 10.9 11.4 88 1.0 ESE 15 20 8 11 1022.4 1020.8 0.0
26/10:00pm 13.7 10.9 11.4 86 1.3 SE 17 24 9 13 1021.8 1020.3 0.0
26/09:30pm 13.8 11.5 11.8 88 1.1 SE 15 20 8 11 1021.6 1020.1 0.0
26/09:00pm 14.0 12.9 12.0 88 1.1 SE 9 15 5 8 1021.3 1019.8 0.0
26/08:30pm 14.1 12.1 11.6 85 1.4 SE 13 20 7 11 1021.1 1019.5 0.0
26/08:00pm 14.6 12.9 12.3 86 1.3 ESE 13 19 7 10 1020.8 1019.2 0.0
26/07:30pm 14.5 11.8 11.7 83 1.6 SE 17 26 9 14 1020.4 1018.9 0.0
26/07:00pm 15.5 12.1 11.3 76 2.3 ESE 20 30 11 16 1019.8 1018.2 0.0
26/06:30pm 16.1 11.4 10.8 71 2.9 ESE 26 37 14 20 1019.2 1017.6 0.0
26/06:00pm 17.5 13.4 11.5 68 3.4 SE 24 39 13 21 1018.6 1017.1 0.0
26/05:30pm 18.0 12.7 11.3 65 3.8 SE 30 41 16 22 1018.2 1016.6 0.0
26/05:00pm 19.3 14.2 11.8 62 4.3 ESE 30 39 16 21 1017.8 1016.2 0.0
26/04:30pm 20.0 14.5 11.8 59 4.7 ESE 32 41 17 22 1017.6 1016.0 0.0
26/04:00pm 21.6 17.1 12.5 56 5.3 ESE 28 37 15 20 1017.2 1015.6 0.0
26/03:30pm 23.0 19.9 10.4 45 7.1 ESE 17 32 9 17 1016.8 1015.2 0.0
26/03:00pm 24.8 21.9 1.7 22 11.3 NNW 6 13 3 7 1017.0 1015.4 0.0
26/02:30pm 24.7 21.8 2.8 24 10.9 NNW 7 15 4 8 1017.4 1015.8 0.0
26/02:00pm 23.7 20.4 2.5 25 10.5 WNW 9 17 5 9 1017.5 1015.9 0.0
26/01:30pm 23.1 19.8 2.6 26 10.1 NW 9 17 5 9 1017.8 1016.2 0.0
26/01:00pm 22.0 18.1 -1.3 21 10.6 NW 9 28 5 15 1018.2 1016.6 0.0
26/12:30pm 21.9 18.6 0.4 24 10.1 NW 7 17 4 9 1018.4 1016.8 0.0
26/12:00pm 20.9 17.4 -1.0 23 9.9 N 7 15 4 8 1018.7 1017.2 0.0
26/11:30am 21.0 18.5 5.0 35 8.1 NNW 7 15 4 8 1019.1 1017.5 0.0
26/11:00am 19.8 15.9 1.3 29 8.7 NW 11 22 6 12 1019.4 1017.8 0.0
26/10:30am 18.9 15.2 4.3 38 7.2 NW 13 24 7 13 1019.5 1017.9 0.0
26/10:00am 18.2 16.1 8.2 52 5.3 N 9 17 5 9 1019.6 1018.0 0.0
26/09:30am 17.7 15.5 8.0 53 5.1 N 9 19 5 10 1019.9 1018.3 0.0
26/09:00am 16.6 15.5 10.7 68 3.2 N 7 17 4 9 1020.2 1018.7 0.0
26/08:30am 14.8 13.8 10.2 74 2.5 NW 6 13 3 7 1020.3 1018.8 0.0
26/08:00am 13.8 13.6 11.8 88 1.1 N 4 9 2 5 1020.3 1018.8 0.0
26/07:30am 12.0 12.4 11.1 94 0.5 CALM 0 0 0 0 1020.3 1018.8 0.0
26/07:00am 10.2 10.1 9.4 95 0.4 CALM 0 0 0 0 1020.3 1018.8 0.0
26/06:30am 9.4 9.1 8.6 95 0.4 CALM 0 0 0 0 1020.2 1018.7 0.0
26/06:00am 8.0 7.3 6.9 93 0.5 CALM 0 0 0 0 1020.0 1018.5 0.0
26/05:30am 8.2 7.5 7.0 92 0.6 CALM 0 0 0 0 1019.8 1018.2 0.0
26/05:00am 9.4 9.0 8.2 92 0.6 CALM 0 0 0 0 1019.6 1018.0 0.0
26/04:30am 9.7 8.6 8.5 92 0.6 NNE 4 6 2 3 1019.3 1017.7 0.0
26/04:00am 10.0 8.5 8.3 89 0.9 NE 6 9 3 5 1019.4 1017.8 0.0
26/03:30am 11.0 9.7 9.1 88 1.0 NE 6 7 3 4 1019.7 1018.1 0.0
26/03:00am 11.7 10.4 9.8 88 1.0 NE 7 11 4 6 1019.8 1018.2 0.0
26/02:30am 11.8 10.7 9.9 88 1.0 NE 6 9 3 5 1020.0 1018.5 0.0
26/02:00am 11.2 9.8 8.9 86 1.2 NE 6 9 3 5 1020.3 1018.8 0.0
26/01:30am 11.9 11.0 9.1 83 1.5 NNE 4 7 2 4 1020.7 1019.1 0.0
26/01:00am 12.4 11.2 9.6 83 1.5 NE 6 13 3 7 1021.0 1019.4 0.0
26/12:30am 12.7 11.5 9.7 82 1.6 ENE 6 9 3 5 1021.3 1019.8 0.0
26/12:00am 12.7 10.9 9.5 81 1.7 NE 9 17 5 9 1021.2 1019.6 0.0
 
Date/Time
EDT
Tmp

°C
App
Tmp
°C
Dew
Point
°C
Rel
Hum
%
Delta-T

°C
Wind Press
QNH
hPa
Press
MSL
hPa
Rain
since
9 am
mm
Dir
 
Spd
km/h
Gust
km/h
Spd
kts
Gust
kts
25/11:30pm 12.9 11.6 10.1 83 1.5 ENE 7 11 4 6 1021.4 1019.9 0.0
25/11:00pm 12.6 11.3 10.0 84 1.4 ENE 7 11 4 6 1021.5 1020.0 0.0
25/10:30pm 12.7 11.4 9.9 83 1.5 E 7 13 4 7 1021.5 1020.0 0.0
25/10:00pm 13.0 11.3 10.0 82 1.6 E 9 15 5 8 1021.4 1019.9 0.0
25/09:30pm 13.1 10.3 9.9 81 1.7 E 15 17 8 9 1021.0 1019.4 0.0
25/09:00pm 13.1 10.7 9.9 81 1.7 E 13 17 7 9 1020.7 1019.1 0.0
25/08:30pm 13.3 10.9 9.9 80 1.8 E 13 17 7 9 1020.1 1018.6 0.0
25/08:00pm 13.6 11.2 10.0 79 1.9 ESE 13 19 7 10 1019.8 1018.2 0.0
25/07:30pm 14.2 11.8 10.2 77 2.2 ESE 13 20 7 11 1019.4 1017.8 0.0
25/07:00pm 14.6 11.1 10.2 75 2.4 ESE 19 22 10 12 1018.6 1017.1 0.0
25/06:30pm 16.3 12.9 10.6 69 3.1 ESE 19 26 10 14 1017.9 1016.3 0.0
25/06:00pm 17.4 13.9 10.8 65 3.7 E 20 28 11 15 1017.4 1015.8 0.0
25/05:30pm 18.5 15.1 11.1 62 4.2 ESE 20 26 11 14 1016.9 1015.3 0.0
25/05:00pm 19.2 14.5 12.0 63 4.1 ESE 28 35 15 19 1016.5 1014.9 0.0
25/04:30pm 20.6 17.1 12.3 59 4.8 ESE 22 32 12 17 1016.3 1014.7 0.0
25/04:00pm 20.9 16.9 11.8 56 5.2 ESE 24 35 13 19 1016.0 1014.3 0.0
25/03:30pm 23.7 17.9 -4.4 15 12.2 WNW 17 26 9 14 1015.6 1014.0 0.0
25/03:00pm 23.9 20.1 -0.4 20 11.4 NNW 9 17 5 9 1015.8 1014.1 0.0
25/02:30pm 22.8 17.9 -3.5 17 11.5 W 13 22 7 12 1015.9 1014.2 0.0
25/02:00pm 22.7 19.2 -1.4 20 11.0 NNW 7 13 4 7 1016.0 1014.3 0.0
25/01:30pm 22.2 16.3 -2.5 19 11.0 W 19 28 10 15 1016.0 1014.3 0.0
25/01:00pm 21.9 16.6 -3.5 18 11.0 W 15 28 8 15 1016.0 1014.3 0.0
25/12:30pm 21.8 15.8 -1.5 21 10.5 W 20 35 11 19 1016.2 1014.6 0.0
25/12:00pm 21.3 17.0 -1.9 21 10.3 WNW 11 22 6 12 1016.2 1014.6 0.0
25/11:30am 20.3 14.6 -4.0 19 10.3 W 17 26 9 14 1016.0 1014.3 0.0
25/11:00am 20.2 15.3 -3.4 20 10.1 WNW 13 26 7 14 1015.5 1013.9 0.0
25/10:30am 19.0 15.0 -2.0 24 9.2 W 9 19 5 10 1015.8 1014.1 0.0
25/10:00am 19.1 12.6 -2.5 23 9.3 WNW 22 30 12 16 1015.5 1013.9 0.0
25/09:30am 17.8 14.3 5.4 44 6.2 NW 13 20 7 11 1015.5 1013.9 0.0
25/09:00am 16.9 13.7 4.9 45 5.9 NW 11 17 6 9 1015.2 1013.6 3.8
25/08:30am 16.9 13.8 7.3 53 5.0 NW 13 20 7 11 1014.7 1013.1 3.8
25/08:00am 15.1 12.5 7.6 61 3.9 WNW 11 19 6 10 1014.3 1012.6 3.8

Latest Capital City Observations: Canberra | Sydney | Melbourne | Brisbane | Adelaide | Perth | Hobart | Darwin

Other Formats:

Comma delimited format used in spreadsheet applications
http://www.bom.gov.au/fwo/IDN60903/IDN60903.94927.axf

JavaScript Object Notation format (JSON) in row-major order
http://www.bom.gov.au/fwo/IDN60903/IDN60903.94927.json